Content
SEND FEEDBACK

Daily
Averages
Monthly
Summary
United States of America

HORSHAM, PENNSYLVANIA


Home > North America > United States > Pennsylvania
Elevation: 335 feet     Latitude: 40 00N     Longitude: 075 12W

WEATHER
 
SELECT A DAY
Number of Records: 204,620;   Date Range: 1/1/95 - 8/12/14
 
SHARE

PRINT THIS DATA

[ ← Previous Day ]
WEATHER ALMANAC - JANUARY 31, 2013
[ Next Day → ]
[ °C ]   °F
Weather ElementAverageHighLow
Temperature51.1 °F62.6 °F (1:13 am)30.9 °F (10:54 pm)
Dewpoint40.2 °F59 °F (3:16 am)7 °F (9:54 pm)
Humidity69 %94 % (3:16 am)31 % (3:54 pm)
Barometer29.39 in29.89 in (11:54 pm)29.11 in (2:38 am)
Wind Speed24.1 mph33.4 mph (5:39 am)
Wind Gust51.8 mph (7:54 am)
Weather ElementAverage
Visibility7.7 mi
Wind DirectionWSW (231.9 °)

Weather ElementTotal
Precipitation2.73 in
Heating Degree Days18.3 (Base 65)
Averaged from 54 records on January 31, 2013
WEATHER CONDITIONS BREAKOUT
WIND DIRECTION BREAKOUT
WEATHER BY HOUR - JANUARY 31, 2013
[ °C ]   °F
Local TimeTemperatureDewpointHumidityBarometerVisibilityWind DirectionWind SpeedGust SpeedPrecipitationEventsConditions
12:18 AM60.8 °F57.2 °F88 %29.32 in7.0 miSouth (180°)16.1 mph25.3 mph0.05 inRainLight Rain
12:54 AM62.1 °F57.0 °F84 %29.25 in8.0 miSouth (170°)18.4 mph32.2 mph0.07 inRainLight Rain
1:13 AM62.6 °F57.2 °F82 %29.21 in9.0 miSouth (170°)21.9 mph31.1 mph0.01 inRainLight Rain
1:45 AM62.6 °F57.2 °F82 %29.18 in8.0 miSouth (170°)27.6 mph41.4 mph0.01 inRainLight Rain
1:54 AM62.1 °F57.0 °F84 %29.17 in8.0 miSouth (180°)28.8 mph43.7 mph0.01 inRainLight Rain
2:00 AM62.6 °F57.2 °F82 %29.17 in8.0 miSouth (180°)27.6 mph43.7 mph0.01 inRainLight Rain
2:22 AM62.6 °F57.2 °F82 %29.13 in9.0 miSouth (170°)27.6 mph43.7 mph0.02 inRainLight Rain
2:30 AM62.6 °F57.2 °F82 %29.12 in9.0 miSouth (180°)29.9 mph43.7 mph0.02 inRainLight Rain
2:38 AM62.6 °F57.2 °F82 %29.11 in10.0 miSouth (170°)28.8 mph42.6 mph0.03 inRainLight Rain
2:41 AM62.6 °F57.2 °F82 %29.11 in8.0 miSouth (180°)31.1 mph44.9 mph0.03 inRainLight Rain
2:43 AM62.6 °F57.2 °F82 %29.11 in6.0 miSouth (170°)27.6 mph44.9 mph0.03 inRainRain
2:54 AM61.0 °F57.9 °F90 %29.11 in5.0 miSouth (170°)27.6 mph41.4 mph0.07 inRainHeavy Rain
2:57 AM60.8 °F57.2 °F88 %29.12 in3.0 miSouth (180°)27.6 mph41.4 mph0.02 inRainHeavy Rain
3:00 AM60.8 °F57.2 °F88 %29.12 in2.0 miSouth (180°)25.3 mph38.0 mph0.04 inRainHeavy Rain
3:07 AM60.8 °F57.2 °F88 %29.16 in1.8 miSSW (210°)26.5 mph36.8 mph0.11 inRainHeavy Rain
3:16 AM60.8 °F59.0 °F94 %29.19 in2.5 miSW (230°)31.1 mph41.4 mph0.23 inRainHeavy Rain
3:21 AM60.8 °F59.0 °F94 %29.18 in2.5 miWSW (240°)28.8 mph41.4 mph0.30 inRainRain
3:27 AM60.8 °F59.0 °F94 %29.19 in4.0 miWSW (240°)23.0 mph36.8 mph0.33 inRainRain
3:33 AM60.8 °F57.2 °F88 %29.20 in5.0 miWSW (240°)20.7 mph28.8 mph0.34 inRainRain
3:41 AM60.8 °F57.2 °F88 %29.19 in5.0 miSW (230°)20.7 mph0.37 inRainHeavy Rain
3:54 AM60.1 °F55.9 °F86 %29.18 in5.0 miSW (220°)17.3 mph0.41 inRainRain
4:33 AM57.2 °F53.6 °F88 %29.15 in7.0 miSouth (180°)11.5 mph0.06 inRainLight Rain
4:43 AM57.2 °F53.6 °F88 %29.15 in10.0 miSouth (190°)16.1 mph20.7 mph0.06 inOvercast
4:54 AM57.9 °F54.0 °F87 %29.16 in10.0 miSSW (200°)19.6 mph0.06 inOvercast
5:33 AM57.2 °F51.8 °F82 %29.16 in7.0 miSW (220°)21.9 mph31.1 mph0.00 inRainLight Rain
5:35 AM57.2 °F51.8 °F82 %29.16 in5.0 miSW (220°)19.6 mph28.8 mph0.00 inRainRain
5:37 AM57.2 °F51.8 °F82 %29.17 in3.0 miSW (230°)26.5 mph33.4 mph0.00 inRainHeavy Rain
5:39 AM57.2 °F51.8 °F82 %29.20 in7.0 miSW (230°)33.4 mph43.7 mph0.00 inRainRain
5:54 AM53.1 °F46.9 °F80 %29.23 in9.0 miWest (280°)25.3 mph36.8 mph0.00 inRainLight Rain
5:57 AM53.6 °F46.4 °F77 %29.24 in6.0 miWest (280°)27.6 mph35.7 mph0.01 inRainLight Rain
6:09 AM51.8 °F46.4 °F82 %29.25 in8.0 miWest (280°)21.9 mph28.8 mph0.01 inRainLight Rain
6:17 AM51.8 °F42.8 °F71 %29.25 in10.0 miWest (280°)20.7 mph35.7 mph0.01 inOvercast
6:54 AM48.9 °F35.1 °F59 %29.31 in10.0 miWest (260°)24.2 mph32.2 mph0.01 inOvercast
7:54 AM46.0 °F28.0 °F50 %29.39 in10.0 miWest (270°)32.2 mph51.8 mphMostly Cloudy
8:54 AM44.1 °F26.1 °F49 %29.47 in10.0 miWest (270°)27.6 mph35.7 mphScattered Clouds
9:54 AM45.0 °F21.9 °F40 %29.50 in10.0 miWest (260°)28.8 mph46.0 mphMostly Cloudy
10:54 AM45.0 °F19.0 °F36 %29.54 in10.0 miWest (280°)27.6 mph38.0 mphMostly Cloudy
11:54 AM45.0 °F18.0 °F34 %29.55 in10.0 miWest (280°)25.3 mph38.0 mphScattered Clouds
12:54 PM45.0 °F17.1 °F33 %29.56 in10.0 miWest (270°)31.1 mph39.1 mphScattered Clouds
1:54 PM46.0 °F18.0 °F33 %29.59 in10.0 miWest (270°)26.5 mph38.0 mphScattered Clouds
2:54 PM43.0 °F16.0 °F34 %29.62 in10.0 miWest (280°)28.8 mph38.0 mphScattered Clouds
3:54 PM42.1 °F12.9 °F31 %29.67 in10.0 miWest (280°)23.0 mph40.3 mphScattered Clouds
4:54 PM39.0 °F14.0 °F36 %29.72 in10.0 miWest (260°)25.3 mph35.7 mphScattered Clouds
5:54 PM37.9 °F16.0 °F41 %29.76 in10.0 miWest (270°)19.6 mph29.9 mphScattered Clouds
6:54 PM36.0 °F14.0 °F41 %29.79 in10.0 miWest (270°)21.9 mph34.5 mphScattered Clouds
7:54 PM34.0 °F21.9 °F61 %29.82 in9.0 miWest (270°)21.9 mph33.4 mph0.00 inSnowLight Snow
8:07 PM33.8 °F21.2 °F60 %29.83 in8.0 miWest (260°)21.9 mph27.6 mph0.00 inSnowLight Snow
8:24 PM32.0 °F24.8 °F75 %29.85 in3.0 miWest (260°)24.2 mph35.7 mph0.00 inSnowLight Snow
8:29 PM32.0 °F24.8 °F75 %29.84 in8.0 miWest (260°)19.6 mph34.5 mph0.00 inSnowLight Snow
8:46 PM33.8 °F21.2 °F60 %29.85 in10.0 miWest (260°)18.4 mph28.8 mph0.00 inOvercast
8:54 PM33.1 °F17.1 °F52 %29.85 in10.0 miWest (270°)28.8 mph35.7 mph0.00 inMostly Cloudy
9:54 PM32.0 °F7.0 °F35 %29.88 in10.0 miWest (280°)15.0 mph23.0 mphPartly Cloudy
10:54 PM30.9 °F9.0 °F40 %29.88 in10.0 miWest (260°)15.0 mphClear
11:54 PM30.9 °F10.0 °F42 %29.89 in10.0 miSW (230°)17.3 mphPartly Cloudy
Hourly data recorded from KPHL, located miles away from Horsham, Pennsylvania







STORIES FROM OUR PARTNERS